Volver al catálogo

STARLINK-31224

ActivoComunicacionesVLEO
NORAD 59029·PAYLOAD·🇺🇸 United States

Lanzado Feb 25, 2024 desde Cape Canaveral Space Force Station

Loading…

Próximos Pases (próximas 24 horas)

TLE

ActualizadoSource: CelesTrak SupGP

Época: Sep 15, 2026, 02:52 UTC

1 59029C 24038G   26258.11993056 -.00021265  00000+0 -77026-3 0  2589
2 59029  43.0019  37.0100 0001605 263.6871  15.9587 15.27586947    10

Sigue STARLINK-31224 en tiempo real con AllMySat

Download on the App Store